Data supplied by UK-AIR on 29/3/2022
All Data GMT hour ending 
Status: R =Ratified P=Provisional,P*=As supplied
,,Saltash Callington Road,,,,,,,,,,,,,,,,,,,,,,,
Date,time,"PM<sub>10</sub> particulate matter (Hourly measured)",status,unit,"PM<sub>2.5</sub> particulate matter (Hourly measured)",status,unit
 
01-01-2021,01:00,13.527,R,ugm-3 (Ref.eq),8.000,R,ugm-3 (BAM)
01-01-2021,02:00,9.662,R,ugm-3 (Ref.eq),6.000,R,ugm-3 (BAM)
01-01-2021,03:00,7.730,R,ugm-3 (Ref.eq),9.000,R,ugm-3 (BAM)
01-01-2021,04:00,9.662,R,ugm-3 (Ref.eq),8.000,R,ugm-3 (BAM)
01-01-2021,05:00,5.797,R,ugm-3 (Ref.eq),11.000,R,ugm-3 (BAM)
01-01-2021,06:00,3.865,R,ugm-3 (Ref.eq),9.000,R,ugm-3 (BAM)
01-01-2021,07:00,7.730,R,ugm-3 (Ref.eq),9.000,R,ugm-3 (BAM)
01-01-2021,08:00,5.797,R,ugm-3 (Ref.eq),7.000,R,ugm-3 (BAM)
01-01-2021,09:00,8.696,R,ugm-3 (Ref.eq),7.000,R,ugm-3 (BAM)
01-01-2021,10:00,11.594,R,ugm-3 (Ref.eq),11.000,R,ugm-3 (BAM)
01-01-2021,11:00,17.392,R,ugm-3 (Ref.eq),19.000,R,ugm-3 (BAM)
01-01-2021,12:00,13.527,R,ugm-3 (Ref.eq),16.000,R,ugm-3 (BAM)
01-01-2021,13:00,12.561,R,ugm-3 (Ref.eq),11.000,R,ugm-3 (BAM)
01-01-2021,14:00,8.696,R,ugm-3 (Ref.eq),10.000,R,ugm-3 (BAM)
01-01-2021,15:00,12.561,R,ugm-3 (Ref.eq),12.000,R,ugm-3 (BAM)
01-01-2021,16:00,9.662,R,ugm-3 (Ref.eq),10.000,R,ugm-3 (BAM)
01-01-2021,17:00,11.594,R,ugm-3 (Ref.eq),11.000,R,ugm-3 (BAM)
01-01-2021,18:00,18.358,R,ugm-3 (Ref.eq),21.000,R,ugm-3 (BAM)
01-01-2021,19:00,14.493,R,ugm-3 (Ref.eq),19.000,R,ugm-3 (BAM)
01-01-2021,20:00,16.425,R,ugm-3 (Ref.eq),18.000,R,ugm-3 (BAM)
01-01-2021,21:00,13.527,R,ugm-3 (Ref.eq),9.000,R,ugm-3 (BAM)
01-01-2021,22:00,10.628,R,ugm-3 (Ref.eq),12.000,R,ugm-3 (BAM)
01-01-2021,23:00,7.730,R,ugm-3 (Ref.eq),10.000,R,ugm-3 (BAM)
01-01-2021,24:00,7.730,R,ugm-3 (Ref.eq),10.000,R,ugm-3 (BAM)
02-01-2021,01:00,9.662,R,ugm-3 (Ref.eq),7.000,R,ugm-3 (BAM)
02-01-2021,02:00,6.763,R,ugm-3 (Ref.eq),7.000,R,ugm-3 (BAM)
02-01-2021,03:00,6.763,R,ugm-3 (Ref.eq),7.000,R,ugm-3 (BAM)
02-01-2021,04:00,8.696,R,ugm-3 (Ref.eq),7.000,R,ugm-3 (BAM)
02-01-2021,05:00,7.730,R,ugm-3 (Ref.eq),6.000,R,ugm-3 (BAM)
02-01-2021,06:00,7.730,R,ugm-3 (Ref.eq),3.000,R,ugm-3 (BAM)
02-01-2021,07:00,6.763,R,ugm-3 (Ref.eq),3.000,R,ugm-3 (BAM)
02-01-2021,08:00,5.797,R,ugm-3 (Ref.eq),5.000,R,ugm-3 (BAM)
02-01-2021,09:00,3.865,R,ugm-3 (Ref.eq),4.000,R,ugm-3 (BAM)
02-01-2021,10:00,3.865,R,ugm-3 (Ref.eq),4.000,R,ugm-3 (BAM)
02-01-2021,11:00,6.763,R,ugm-3 (Ref.eq),6.000,R,ugm-3 (BAM)
02-01-2021,12:00,9.662,R,ugm-3 (Ref.eq),6.000,R,ugm-3 (BAM)
02-01-2021,13:00,5.797,R,ugm-3 (Ref.eq),6.000,R,ugm-3 (BAM)
02-01-2021,14:00,6.763,R,ugm-3 (Ref.eq),4.000,R,ugm-3 (BAM)
02-01-2021,15:00,7.730,R,ugm-3 (Ref.eq),5.000,R,ugm-3 (BAM)
02-01-2021,16:00,10.628,R,ugm-3 (Ref.eq),5.000,R,ugm-3 (BAM)
02-01-2021,17:00,10.628,R,ugm-3 (Ref.eq),6.000,R,ugm-3 (BAM)
02-01-2021,18:00,6.763,R,ugm-3 (Ref.eq),6.000,R,ugm-3 (BAM)
02-01-2021,19:00,3.865,R,ugm-3 (Ref.eq),8.000,R,ugm-3 (BAM)
02-01-2021,20:00,12.561,R,ugm-3 (Ref.eq),12.000,R,ugm-3 (BAM)
02-01-2021,21:00,7.730,R,ugm-3 (Ref.eq),7.000,R,ugm-3 (BAM)
02-01-2021,22:00,2.899,R,ugm-3 (Ref.eq),3.000,R,ugm-3 (BAM)
02-01-2021,23:00,2.899,R,ugm-3 (Ref.eq),1.000,R,ugm-3 (BAM)
02-01-2021,24:00,3.865,R,ugm-3 (Ref.eq),1.000,R,ugm-3 (BAM)
03-01-2021,01:00,4.831,R,ugm-3 (Ref.eq),4.000,R,ugm-3 (BAM)
03-01-2021,02:00,3.865,R,ugm-3 (Ref.eq),4.000,R,ugm-3 (BAM)
03-01-2021,03:00,4.831,R,ugm-3 (Ref.eq),9.000,R,ugm-3 (BAM)
03-01-2021,04:00,3.865,R,ugm-3 (Ref.eq),6.000,R,ugm-3 (BAM)
03-01-2021,05:00,6.763,R,ugm-3 (Ref.eq),8.000,R,ugm-3 (BAM)
03-01-2021,06:00,5.797,R,ugm-3 (Ref.eq),7.000,R,ugm-3 (BAM)
03-01-2021,07:00,5.797,R,ugm-3 (Ref.eq),4.000,R,ugm-3 (BAM)
03-01-2021,08:00,7.730,R,ugm-3 (Ref.eq),8.000,R,ugm-3 (BAM)
03-01-2021,09:00,4.831,R,ugm-3 (Ref.eq),6.000,R,ugm-3 (BAM)
03-01-2021,10:00,0.966,R,ugm-3 (Ref.eq),7.000,R,ugm-3 (BAM)
03-01-2021,11:00,1.932,R,ugm-3 (Ref.eq),6.000,R,ugm-3 (BAM)
03-01-2021,12:00,0.966,R,ugm-3 (Ref.eq),6.000,R,ugm-3 (BAM)
03-01-2021,13:00,0.966,R,ugm-3 (Ref.eq),6.000,R,ugm-3 (BAM)
03-01-2021,14:00,1.932,R,ugm-3 (Ref.eq),6.000,R,ugm-3 (BAM)
03-01-2021,15:00,1.932,R,ugm-3 (Ref.eq),9.000,R,ugm-3 (BAM)
03-01-2021,16:00,1.932,R,ugm-3 (Ref.eq),9.000,R,ugm-3 (BAM)
03-01-2021,17:00,8.696,R,ugm-3 (Ref.eq),12.000,R,ugm-3 (BAM)
03-01-2021,18:00,15.459,R,ugm-3 (Ref.eq),15.000,R,ugm-3 (BAM)
03-01-2021,19:00,7.730,R,ugm-3 (Ref.eq),10.000,R,ugm-3 (BAM)
03-01-2021,20:00,9.662,R,ugm-3 (Ref.eq),12.000,R,ugm-3 (BAM)
03-01-2021,21:00,12.561,R,ugm-3 (Ref.eq),12.000,R,ugm-3 (BAM)
03-01-2021,22:00,8.696,R,ugm-3 (Ref.eq),8.000,R,ugm-3 (BAM)
03-01-2021,23:00,6.763,R,ugm-3 (Ref.eq),6.000,R,ugm-3 (BAM)
03-01-2021,24:00,9.662,R,ugm-3 (Ref.eq),9.000,R,ugm-3 (BAM)
04-01-2021,01:00,7.730,R,ugm-3 (Ref.eq),9.000,R,ugm-3 (BAM)
04-01-2021,02:00,8.696,R,ugm-3 (Ref.eq),12.000,R,ugm-3 (BAM)
04-01-2021,03:00,8.696,R,ugm-3 (Ref.eq),11.000,R,ugm-3 (BAM)
04-01-2021,04:00,5.797,R,ugm-3 (Ref.eq),9.000,R,ugm-3 (BAM)
04-01-2021,05:00,4.831,R,ugm-3 (Ref.eq),8.000,R,ugm-3 (BAM)
04-01-2021,06:00,9.662,R,ugm-3 (Ref.eq),5.000,R,ugm-3 (BAM)
04-01-2021,07:00,6.763,R,ugm-3 (Ref.eq),4.000,R,ugm-3 (BAM)
04-01-2021,08:00,7.730,R,ugm-3 (Ref.eq),3.000,R,ugm-3 (BAM)
04-01-2021,09:00,7.730,R,ugm-3 (Ref.eq),8.000,R,ugm-3 (BAM)
04-01-2021,10:00,7.730,R,ugm-3 (Ref.eq),5.000,R,ugm-3 (BAM)
04-01-2021,11:00,9.662,R,ugm-3 (Ref.eq),1.000,R,ugm-3 (BAM)
04-01-2021,12:00,6.763,R,ugm-3 (Ref.eq),3.000,R,ugm-3 (BAM)
04-01-2021,13:00,6.763,R,ugm-3 (Ref.eq),11.000,R,ugm-3 (BAM)
04-01-2021,14:00,4.831,R,ugm-3 (Ref.eq),7.000,R,ugm-3 (BAM)
04-01-2021,15:00,5.797,R,ugm-3 (Ref.eq),3.000,R,ugm-3 (BAM)
04-01-2021,16:00,5.797,R,ugm-3 (Ref.eq),8.000,R,ugm-3 (BAM)
04-01-2021,17:00,5.797,R,ugm-3 (Ref.eq),6.000,R,ugm-3 (BAM)
04-01-2021,18:00,10.628,R,ugm-3 (Ref.eq),9.000,R,ugm-3 (BAM)
04-01-2021,19:00,8.696,R,ugm-3 (Ref.eq),6.000,R,ugm-3 (BAM)
04-01-2021,20:00,8.696,R,ugm-3 (Ref.eq),2.000,R,ugm-3 (BAM)
04-01-2021,21:00,9.662,R,ugm-3 (Ref.eq),4.000,R,ugm-3 (BAM)
04-01-2021,22:00,9.662,R,ugm-3 (Ref.eq),6.000,R,ugm-3 (BAM)
04-01-2021,23:00,8.696,R,ugm-3 (Ref.eq),2.000,R,ugm-3 (BAM)
04-01-2021,24:00,13.527,R,ugm-3 (Ref.eq),2.000,R,ugm-3 (BAM)
05-01-2021,01:00,6.763,R,ugm-3 (Ref.eq),3.000,R,ugm-3 (BAM)
05-01-2021,02:00,1.932,R,ugm-3 (Ref.eq),4.000,R,ugm-3 (BAM)
05-01-2021,03:00,3.865,R,ugm-3 (Ref.eq),6.000,R,ugm-3 (BAM)
05-01-2021,04:00,1.932,R,ugm-3 (Ref.eq),4.000,R,ugm-3 (BAM)
05-01-2021,05:00,3.865,R,ugm-3 (Ref.eq),5.000,R,ugm-3 (BAM)
05-01-2021,06:00,5.797,R,ugm-3 (Ref.eq),9.000,R,ugm-3 (BAM)
05-01-2021,07:00,2.899,R,ugm-3 (Ref.eq),6.000,R,ugm-3 (BAM)
05-01-2021,08:00,1.932,R,ugm-3 (Ref.eq),4.000,R,ugm-3 (BAM)
05-01-2021,09:00,3.865,R,ugm-3 (Ref.eq),5.000,R,ugm-3 (BAM)
05-01-2021,10:00,5.797,R,ugm-3 (Ref.eq),7.000,R,ugm-3 (BAM)
05-01-2021,11:00,2.899,R,ugm-3 (Ref.eq),6.000,R,ugm-3 (BAM)
05-01-2021,12:00,2.899,R,ugm-3 (Ref.eq),5.000,R,ugm-3 (BAM)
05-01-2021,13:00,5.797,R,ugm-3 (Ref.eq),6.000,R,ugm-3 (BAM)
05-01-2021,14:00,7.730,R,ugm-3 (Ref.eq),5.000,R,ugm-3 (BAM)
05-01-2021,15:00,8.696,R,ugm-3 (Ref.eq),9.000,R,ugm-3 (BAM)
05-01-2021,16:00,10.628,R,ugm-3 (Ref.eq),7.000,R,ugm-3 (BAM)
05-01-2021,17:00,9.662,R,ugm-3 (Ref.eq),8.000,R,ugm-3 (BAM)
05-01-2021,18:00,8.696,R,ugm-3 (Ref.eq),9.000,R,ugm-3 (BAM)
05-01-2021,19:00,11.594,R,ugm-3 (Ref.eq),74.000,R,ugm-3 (BAM)
05-01-2021,20:00,11.594,R,ugm-3 (Ref.eq),12.000,R,ugm-3 (BAM)
05-01-2021,21:00,12.561,R,ugm-3 (Ref.eq),8.000,R,ugm-3 (BAM)
05-01-2021,22:00,8.696,R,ugm-3 (Ref.eq),8.000,R,ugm-3 (BAM)
05-01-2021,23:00,6.763,R,ugm-3 (Ref.eq),7.000,R,ugm-3 (BAM)
05-01-2021,24:00,8.696,R,ugm-3 (Ref.eq),6.000,R,ugm-3 (BAM)
06-01-2021,01:00,9.662,R,ugm-3 (Ref.eq),4.000,R,ugm-3 (BAM)
06-01-2021,02:00,11.594,R,ugm-3 (Ref.eq),5.000,R,ugm-3 (BAM)
06-01-2021,03:00,7.730,R,ugm-3 (Ref.eq),9.000,R,ugm-3 (BAM)
06-01-2021,04:00,8.696,R,ugm-3 (Ref.eq),10.000,R,ugm-3 (BAM)
06-01-2021,05:00,10.628,R,ugm-3 (Ref.eq),8.000,R,ugm-3 (BAM)
06-01-2021,06:00,9.662,R,ugm-3 (Ref.eq),7.000,R,ugm-3 (BAM)
06-01-2021,07:00,5.797,R,ugm-3 (Ref.eq),6.000,R,ugm-3 (BAM)
06-01-2021,08:00,8.696,R,ugm-3 (Ref.eq),7.000,R,ugm-3 (BAM)
06-01-2021,09:00,9.662,R,ugm-3 (Ref.eq),8.000,R,ugm-3 (BAM)
06-01-2021,10:00,10.628,R,ugm-3 (Ref.eq),9.000,R,ugm-3 (BAM)
06-01-2021,11:00,7.730,R,ugm-3 (Ref.eq),7.000,R,ugm-3 (BAM)
06-01-2021,12:00,13.527,R,ugm-3 (Ref.eq),9.000,R,ugm-3 (BAM)
06-01-2021,13:00,9.662,R,ugm-3 (Ref.eq),8.000,R,ugm-3 (BAM)
06-01-2021,14:00,5.797,R,ugm-3 (Ref.eq),7.000,R,ugm-3 (BAM)
06-01-2021,15:00,9.662,R,ugm-3 (Ref.eq),7.000,R,ugm-3 (BAM)
06-01-2021,16:00,7.730,R,ugm-3 (Ref.eq),8.000,R,ugm-3 (BAM)
06-01-2021,17:00,6.763,R,ugm-3 (Ref.eq),10.000,R,ugm-3 (BAM)
06-01-2021,18:00,14.493,R,ugm-3 (Ref.eq),15.000,R,ugm-3 (BAM)
06-01-2021,19:00,8.696,R,ugm-3 (Ref.eq),14.000,R,ugm-3 (BAM)
06-01-2021,20:00,12.561,R,ugm-3 (Ref.eq),17.000,R,ugm-3 (BAM)
06-01-2021,21:00,11.594,R,ugm-3 (Ref.eq),14.000,R,ugm-3 (BAM)
06-01-2021,22:00,13.527,R,ugm-3 (Ref.eq),13.000,R,ugm-3 (BAM)
06-01-2021,23:00,17.392,R,ugm-3 (Ref.eq),10.000,R,ugm-3 (BAM)
06-01-2021,24:00,14.493,R,ugm-3 (Ref.eq),13.000,R,ugm-3 (BAM)
07-01-2021,01:00,15.459,R,ugm-3 (Ref.eq),11.000,R,ugm-3 (BAM)
07-01-2021,02:00,11.594,R,ugm-3 (Ref.eq),15.000,R,ugm-3 (BAM)
07-01-2021,03:00,10.628,R,ugm-3 (Ref.eq),15.000,R,ugm-3 (BAM)
07-01-2021,04:00,13.527,R,ugm-3 (Ref.eq),12.000,R,ugm-3 (BAM)
07-01-2021,05:00,11.594,R,ugm-3 (Ref.eq),17.000,R,ugm-3 (BAM)
07-01-2021,06:00,13.527,R,ugm-3 (Ref.eq),8.000,R,ugm-3 (BAM)
07-01-2021,07:00,14.493,R,ugm-3 (Ref.eq),9.000,R,ugm-3 (BAM)
07-01-2021,08:00,12.561,R,ugm-3 (Ref.eq),10.000,R,ugm-3 (BAM)
07-01-2021,09:00,20.290,R,ugm-3 (Ref.eq),10.000,R,ugm-3 (BAM)
07-01-2021,10:00,10.628,R,ugm-3 (Ref.eq),9.000,R,ugm-3 (BAM)
07-01-2021,11:00,16.425,R,ugm-3 (Ref.eq),11.000,R,ugm-3 (BAM)
07-01-2021,12:00,14.493,R,ugm-3 (Ref.eq),15.000,R,ugm-3 (BAM)
07-01-2021,13:00,11.594,R,ugm-3 (Ref.eq),11.000,R,ugm-3 (BAM)
07-01-2021,14:00,16.425,R,ugm-3 (Ref.eq),11.000,R,ugm-3 (BAM)
07-01-2021,15:00,18.358,R,ugm-3 (Ref.eq),16.000,R,ugm-3 (BAM)
07-01-2021,16:00,11.594,R,ugm-3 (Ref.eq),8.000,R,ugm-3 (BAM)
07-01-2021,17:00,26.087,R,ugm-3 (Ref.eq),23.000,R,ugm-3 (BAM)
07-01-2021,18:00,26.087,R,ugm-3 (Ref.eq),22.000,R,ugm-3 (BAM)
07-01-2021,19:00,35.749,R,ugm-3 (Ref.eq),31.000,R,ugm-3 (BAM)
07-01-2021,20:00,30.918,R,ugm-3 (Ref.eq),20.000,R,ugm-3 (BAM)
07-01-2021,21:00,24.155,R,ugm-3 (Ref.eq),21.000,R,ugm-3 (BAM)
07-01-2021,22:00,24.155,R,ugm-3 (Ref.eq),19.000,R,ugm-3 (BAM)
07-01-2021,23:00,30.918,R,ugm-3 (Ref.eq),30.000,R,ugm-3 (BAM)
07-01-2021,24:00,23.189,R,ugm-3 (Ref.eq),23.000,R,ugm-3 (BAM)
08-01-2021,01:00,6.763,R,ugm-3 (Ref.eq),8.000,R,ugm-3 (BAM)
08-01-2021,02:00,23.189,R,ugm-3 (Ref.eq),15.000,R,ugm-3 (BAM)
08-01-2021,03:00,11.594,R,ugm-3 (Ref.eq),14.000,R,ugm-3 (BAM)
08-01-2021,04:00,10.628,R,ugm-3 (Ref.eq),11.000,R,ugm-3 (BAM)
08-01-2021,05:00,5.797,R,ugm-3 (Ref.eq),6.000,R,ugm-3 (BAM)
08-01-2021,06:00,1.932,R,ugm-3 (Ref.eq),1.000,R,ugm-3 (BAM)
08-01-2021,07:00,4.831,R,ugm-3 (Ref.eq),9.000,R,ugm-3 (BAM)
08-01-2021,08:00,11.594,R,ugm-3 (Ref.eq),11.000,R,ugm-3 (BAM)
08-01-2021,09:00,9.662,R,ugm-3 (Ref.eq),9.000,R,ugm-3 (BAM)
08-01-2021,10:00,6.763,R,ugm-3 (Ref.eq),8.000,R,ugm-3 (BAM)
08-01-2021,11:00,3.865,R,ugm-3 (Ref.eq),6.000,R,ugm-3 (BAM)
08-01-2021,12:00,6.763,R,ugm-3 (Ref.eq),10.000,R,ugm-3 (BAM)
08-01-2021,13:00,11.594,R,ugm-3 (Ref.eq),8.000,R,ugm-3 (BAM)
08-01-2021,14:00,9.662,R,ugm-3 (Ref.eq),8.000,R,ugm-3 (BAM)
08-01-2021,15:00,7.730,R,ugm-3 (Ref.eq),9.000,R,ugm-3 (BAM)
08-01-2021,16:00,11.594,R,ugm-3 (Ref.eq),8.000,R,ugm-3 (BAM)
08-01-2021,17:00,11.594,R,ugm-3 (Ref.eq),13.000,R,ugm-3 (BAM)
08-01-2021,18:00,19.324,R,ugm-3 (Ref.eq),19.000,R,ugm-3 (BAM)
08-01-2021,19:00,31.885,R,ugm-3 (Ref.eq),32.000,R,ugm-3 (BAM)
08-01-2021,20:00,26.087,R,ugm-3 (Ref.eq),24.000,R,ugm-3 (BAM)
08-01-2021,21:00,16.425,R,ugm-3 (Ref.eq),15.000,R,ugm-3 (BAM)
08-01-2021,22:00,19.324,R,ugm-3 (Ref.eq),16.000,R,ugm-3 (BAM)
08-01-2021,23:00,13.527,R,ugm-3 (Ref.eq),10.000,R,ugm-3 (BAM)
08-01-2021,24:00,18.358,R,ugm-3 (Ref.eq),16.000,R,ugm-3 (BAM)
09-01-2021,01:00,13.527,R,ugm-3 (Ref.eq),6.000,R,ugm-3 (BAM)
09-01-2021,02:00,10.628,R,ugm-3 (Ref.eq),15.000,R,ugm-3 (BAM)
09-01-2021,03:00,10.628,R,ugm-3 (Ref.eq),14.000,R,ugm-3 (BAM)
09-01-2021,04:00,12.561,R,ugm-3 (Ref.eq),19.000,R,ugm-3 (BAM)
09-01-2021,05:00,17.392,R,ugm-3 (Ref.eq),14.000,R,ugm-3 (BAM)
09-01-2021,06:00,14.493,R,ugm-3 (Ref.eq),19.000,R,ugm-3 (BAM)
09-01-2021,07:00,17.392,R,ugm-3 (Ref.eq),18.000,R,ugm-3 (BAM)
09-01-2021,08:00,16.425,R,ugm-3 (Ref.eq),18.000,R,ugm-3 (BAM)
09-01-2021,09:00,14.493,R,ugm-3 (Ref.eq),23.000,R,ugm-3 (BAM)
09-01-2021,10:00,17.392,R,ugm-3 (Ref.eq),18.000,R,ugm-3 (BAM)
09-01-2021,11:00,7.730,R,ugm-3 (Ref.eq),10.000,R,ugm-3 (BAM)
09-01-2021,12:00,5.797,R,ugm-3 (Ref.eq),11.000,R,ugm-3 (BAM)
09-01-2021,13:00,5.797,R,ugm-3 (Ref.eq),10.000,R,ugm-3 (BAM)
09-01-2021,14:00,11.594,R,ugm-3 (Ref.eq),9.000,R,ugm-3 (BAM)
09-01-2021,15:00,11.594,R,ugm-3 (Ref.eq),12.000,R,ugm-3 (BAM)
09-01-2021,16:00,12.561,R,ugm-3 (Ref.eq),13.000,R,ugm-3 (BAM)
09-01-2021,17:00,25.121,R,ugm-3 (Ref.eq),27.000,R,ugm-3 (BAM)
09-01-2021,18:00,31.885,R,ugm-3 (Ref.eq),28.000,R,ugm-3 (BAM)
09-01-2021,19:00,25.121,R,ugm-3 (Ref.eq),28.000,R,ugm-3 (BAM)
09-01-2021,20:00,17.392,R,ugm-3 (Ref.eq),22.000,R,ugm-3 (BAM)
09-01-2021,21:00,18.358,R,ugm-3 (Ref.eq),22.000,R,ugm-3 (BAM)
09-01-2021,22:00,13.527,R,ugm-3 (Ref.eq),21.000,R,ugm-3 (BAM)
09-01-2021,23:00,14.493,R,ugm-3 (Ref.eq),16.000,R,ugm-3 (BAM)
09-01-2021,24:00,5.797,R,ugm-3 (Ref.eq),19.000,R,ugm-3 (BAM)
10-01-2021,01:00,11.594,R,ugm-3 (Ref.eq),11.000,R,ugm-3 (BAM)
10-01-2021,02:00,9.662,R,ugm-3 (Ref.eq),14.000,R,ugm-3 (BAM)
10-01-2021,03:00,12.561,R,ugm-3 (Ref.eq),17.000,R,ugm-3 (BAM)
10-01-2021,04:00,15.459,R,ugm-3 (Ref.eq),10.000,R,ugm-3 (BAM)
10-01-2021,05:00,11.594,R,ugm-3 (Ref.eq),10.000,R,ugm-3 (BAM)
10-01-2021,06:00,8.696,R,ugm-3 (Ref.eq),16.000,R,ugm-3 (BAM)
10-01-2021,07:00,12.561,R,ugm-3 (Ref.eq),13.000,R,ugm-3 (BAM)
10-01-2021,08:00,9.662,R,ugm-3 (Ref.eq),11.000,R,ugm-3 (BAM)
10-01-2021,09:00,15.459,R,ugm-3 (Ref.eq),13.000,R,ugm-3 (BAM)
10-01-2021,10:00,20.290,R,ugm-3 (Ref.eq),12.000,R,ugm-3 (BAM)
10-01-2021,11:00,14.493,R,ugm-3 (Ref.eq),17.000,R,ugm-3 (BAM)
10-01-2021,12:00,17.392,R,ugm-3 (Ref.eq),17.000,R,ugm-3 (BAM)
10-01-2021,13:00,20.290,R,ugm-3 (Ref.eq),19.000,R,ugm-3 (BAM)
10-01-2021,14:00,30.918,R,ugm-3 (Ref.eq),25.000,R,ugm-3 (BAM)
10-01-2021,15:00,23.189,R,ugm-3 (Ref.eq),29.000,R,ugm-3 (BAM)
10-01-2021,16:00,36.716,R,ugm-3 (Ref.eq),42.000,R,ugm-3 (BAM)
10-01-2021,17:00,28.986,R,ugm-3 (Ref.eq),34.000,R,ugm-3 (BAM)
10-01-2021,18:00,24.155,R,ugm-3 (Ref.eq),26.000,R,ugm-3 (BAM)
10-01-2021,19:00,22.223,R,ugm-3 (Ref.eq),23.000,R,ugm-3 (BAM)
10-01-2021,20:00,13.527,R,ugm-3 (Ref.eq),13.000,R,ugm-3 (BAM)
10-01-2021,21:00,12.561,R,ugm-3 (Ref.eq),16.000,R,ugm-3 (BAM)
10-01-2021,22:00,7.730,R,ugm-3 (Ref.eq),11.000,R,ugm-3 (BAM)
10-01-2021,23:00,4.831,R,ugm-3 (Ref.eq),9.000,R,ugm-3 (BAM)
10-01-2021,24:00,4.831,R,ugm-3 (Ref.eq),5.000,R,ugm-3 (BAM)
11-01-2021,01:00,6.763,R,ugm-3 (Ref.eq),2.000,R,ugm-3 (BAM)
11-01-2021,02:00,5.797,R,ugm-3 (Ref.eq),3.000,R,ugm-3 (BAM)
11-01-2021,03:00,7.730,R,ugm-3 (Ref.eq),4.000,R,ugm-3 (BAM)
11-01-2021,04:00,4.831,R,ugm-3 (Ref.eq),3.000,R,ugm-3 (BAM)
11-01-2021,05:00,0.000,R,ugm-3 (Ref.eq),4.000,R,ugm-3 (BAM)
11-01-2021,06:00,0.966,R,ugm-3 (Ref.eq),2.000,R,ugm-3 (BAM)
11-01-2021,07:00,0.000,R,ugm-3 (Ref.eq),5.000,R,ugm-3 (BAM)
11-01-2021,08:00,-2.899,R,ugm-3 (Ref.eq),4.000,R,ugm-3 (BAM)
11-01-2021,09:00,5.797,R,ugm-3 (Ref.eq),4.000,R,ugm-3 (BAM)
11-01-2021,10:00,6.763,R,ugm-3 (Ref.eq),5.000,R,ugm-3 (BAM)
11-01-2021,11:00,3.865,R,ugm-3 (Ref.eq),4.000,R,ugm-3 (BAM)
11-01-2021,12:00,2.899,R,ugm-3 (Ref.eq),4.000,R,ugm-3 (BAM)
11-01-2021,13:00,1.932,R,ugm-3 (Ref.eq),5.000,R,ugm-3 (BAM)
11-01-2021,14:00,3.865,R,ugm-3 (Ref.eq),4.000,R,ugm-3 (BAM)
11-01-2021,15:00,8.696,R,ugm-3 (Ref.eq),4.000,R,ugm-3 (BAM)
11-01-2021,16:00,7.730,R,ugm-3 (Ref.eq),4.000,R,ugm-3 (BAM)
11-01-2021,17:00,10.628,R,ugm-3 (Ref.eq),4.000,R,ugm-3 (BAM)
11-01-2021,18:00,7.730,R,ugm-3 (Ref.eq),7.000,R,ugm-3 (BAM)
11-01-2021,19:00,6.763,R,ugm-3 (Ref.eq),7.000,R,ugm-3 (BAM)
11-01-2021,20:00,3.865,R,ugm-3 (Ref.eq),5.000,R,ugm-3 (BAM)
11-01-2021,21:00,6.763,R,ugm-3 (Ref.eq),4.000,R,ugm-3 (BAM)
11-01-2021,22:00,3.865,R,ugm-3 (Ref.eq),6.000,R,ugm-3 (BAM)
11-01-2021,23:00,1.932,R,ugm-3 (Ref.eq),4.000,R,ugm-3 (BAM)
11-01-2021,24:00,2.899,R,ugm-3 (Ref.eq),3.000,R,ugm-3 (BAM)
12-01-2021,01:00,10.628,R,ugm-3 (Ref.eq),2.000,R,ugm-3 (BAM)
12-01-2021,02:00,10.628,R,ugm-3 (Ref.eq),6.000,R,ugm-3 (BAM)
12-01-2021,03:00,5.797,R,ugm-3 (Ref.eq),4.000,R,ugm-3 (BAM)
12-01-2021,04:00,1.932,R,ugm-3 (Ref.eq),11.000,R,ugm-3 (BAM)
12-01-2021,05:00,-1.932,R,ugm-3 (Ref.eq),7.000,R,ugm-3 (BAM)
12-01-2021,06:00,-0.966,R,ugm-3 (Ref.eq),6.000,R,ugm-3 (BAM)
12-01-2021,07:00,4.831,R,ugm-3 (Ref.eq),5.000,R,ugm-3 (BAM)
12-01-2021,08:00,0.966,R,ugm-3 (Ref.eq),4.000,R,ugm-3 (BAM)
12-01-2021,09:00,,,,10.000,R,ugm-3 (BAM)
12-01-2021,10:00,0.966,R,ugm-3 (Ref.eq),8.000,R,ugm-3 (BAM)
12-01-2021,11:00,3.865,R,ugm-3 (Ref.eq),6.000,R,ugm-3 (BAM)
12-01-2021,12:00,0.966,R,ugm-3 (Ref.eq),8.000,R,ugm-3 (BAM)
12-01-2021,13:00,-1.932,R,ugm-3 (Ref.eq),6.000,R,ugm-3 (BAM)
12-01-2021,14:00,-2.899,R,ugm-3 (Ref.eq),4.000,R,ugm-3 (BAM)
12-01-2021,15:00,-1.932,R,ugm-3 (Ref.eq),5.000,R,ugm-3 (BAM)
12-01-2021,16:00,0.966,R,ugm-3 (Ref.eq),4.000,R,ugm-3 (BAM)
12-01-2021,17:00,2.899,R,ugm-3 (Ref.eq),9.000,R,ugm-3 (BAM)
12-01-2021,18:00,2.899,R,ugm-3 (Ref.eq),6.000,R,ugm-3 (BAM)
12-01-2021,19:00,0.000,R,ugm-3 (Ref.eq),4.000,R,ugm-3 (BAM)
12-01-2021,20:00,3.865,R,ugm-3 (Ref.eq),8.000,R,ugm-3 (BAM)
12-01-2021,21:00,2.899,R,ugm-3 (Ref.eq),7.000,R,ugm-3 (BAM)
12-01-2021,22:00,-0.966,R,ugm-3 (Ref.eq),8.000,R,ugm-3 (BAM)
12-01-2021,23:00,-2.899,R,ugm-3 (Ref.eq),7.000,R,ugm-3 (BAM)
12-01-2021,24:00,-2.899,R,ugm-3 (Ref.eq),4.000,R,ugm-3 (BAM)
13-01-2021,01:00,-0.966,R,ugm-3 (Ref.eq),0.000,R,ugm-3 (BAM)
13-01-2021,02:00,2.899,R,ugm-3 (Ref.eq),3.000,R,ugm-3 (BAM)
13-01-2021,03:00,1.932,R,ugm-3 (Ref.eq),3.000,R,ugm-3 (BAM)
13-01-2021,04:00,2.899,R,ugm-3 (Ref.eq),3.000,R,ugm-3 (BAM)
13-01-2021,05:00,4.831,R,ugm-3 (Ref.eq),10.000,R,ugm-3 (BAM)
13-01-2021,06:00,3.865,R,ugm-3 (Ref.eq),6.000,R,ugm-3 (BAM)
13-01-2021,07:00,2.899,R,ugm-3 (Ref.eq),,,
13-01-2021,08:00,4.831,R,ugm-3 (Ref.eq),,,
13-01-2021,09:00,4.831,R,ugm-3 (Ref.eq),,,
13-01-2021,10:00,9.662,R,ugm-3 (Ref.eq),,,
13-01-2021,11:00,8.696,R,ugm-3 (Ref.eq),,,
13-01-2021,12:00,8.696,R,ugm-3 (Ref.eq),,,
13-01-2021,13:00,6.763,R,ugm-3 (Ref.eq),,,
13-01-2021,14:00,6.763,R,ugm-3 (Ref.eq),,,
13-01-2021,15:00,9.662,R,ugm-3 (Ref.eq),,,
13-01-2021,16:00,,,,,,
13-01-2021,17:00,5.797,R,ugm-3 (Ref.eq),,,
13-01-2021,18:00,6.763,R,ugm-3 (Ref.eq),,,
13-01-2021,19:00,19.324,R,ugm-3 (Ref.eq),,,
13-01-2021,20:00,20.290,R,ugm-3 (Ref.eq),,,
13-01-2021,21:00,7.730,R,ugm-3 (Ref.eq),,,
13-01-2021,22:00,7.730,R,ugm-3 (Ref.eq),,,
13-01-2021,23:00,4.831,R,ugm-3 (Ref.eq),,,
13-01-2021,24:00,1.932,R,ugm-3 (Ref.eq),,,
14-01-2021,01:00,2.899,R,ugm-3 (Ref.eq),,,
14-01-2021,02:00,1.932,R,ugm-3 (Ref.eq),,,
14-01-2021,03:00,1.932,R,ugm-3 (Ref.eq),,,
14-01-2021,04:00,4.831,R,ugm-3 (Ref.eq),,,
14-01-2021,05:00,2.899,R,ugm-3 (Ref.eq),,,
14-01-2021,06:00,0.000,R,ugm-3 (Ref.eq),,,
14-01-2021,07:00,-0.966,R,ugm-3 (Ref.eq),,,
14-01-2021,08:00,2.899,R,ugm-3 (Ref.eq),,,
14-01-2021,09:00,5.797,R,ugm-3 (Ref.eq),,,
14-01-2021,10:00,2.899,R,ugm-3 (Ref.eq),,,
14-01-2021,11:00,2.899,R,ugm-3 (Ref.eq),,,
14-01-2021,12:00,8.696,R,ugm-3 (Ref.eq),,,
14-01-2021,13:00,9.662,R,ugm-3 (Ref.eq),,,
14-01-2021,14:00,7.730,R,ugm-3 (Ref.eq),,,
14-01-2021,15:00,4.831,R,ugm-3 (Ref.eq),,,
14-01-2021,16:00,7.730,R,ugm-3 (Ref.eq),,,
14-01-2021,17:00,11.594,R,ugm-3 (Ref.eq),,,
14-01-2021,18:00,18.358,R,ugm-3 (Ref.eq),,,
14-01-2021,19:00,13.527,R,ugm-3 (Ref.eq),,,
14-01-2021,20:00,11.594,R,ugm-3 (Ref.eq),,,
14-01-2021,21:00,10.628,R,ugm-3 (Ref.eq),,,
14-01-2021,22:00,12.561,R,ugm-3 (Ref.eq),,,
14-01-2021,23:00,13.527,R,ugm-3 (Ref.eq),,,
14-01-2021,24:00,10.628,R,ugm-3 (Ref.eq),,,
15-01-2021,01:00,7.730,R,ugm-3 (Ref.eq),,,
15-01-2021,02:00,12.561,R,ugm-3 (Ref.eq),,,
15-01-2021,03:00,13.527,R,ugm-3 (Ref.eq),,,
15-01-2021,04:00,10.628,R,ugm-3 (Ref.eq),,,
15-01-2021,05:00,8.696,R,ugm-3 (Ref.eq),,,
15-01-2021,06:00,6.763,R,ugm-3 (Ref.eq),,,
15-01-2021,07:00,6.763,R,ugm-3 (Ref.eq),,,
15-01-2021,08:00,5.797,R,ugm-3 (Ref.eq),,,
15-01-2021,09:00,13.527,R,ugm-3 (Ref.eq),,,
15-01-2021,10:00,18.358,R,ugm-3 (Ref.eq),,,
15-01-2021,11:00,14.493,R,ugm-3 (Ref.eq),,,
15-01-2021,12:00,12.561,R,ugm-3 (Ref.eq),,,
15-01-2021,13:00,10.628,R,ugm-3 (Ref.eq),,,
15-01-2021,14:00,11.594,R,ugm-3 (Ref.eq),,,
15-01-2021,15:00,10.628,R,ugm-3 (Ref.eq),,,
15-01-2021,16:00,8.696,R,ugm-3 (Ref.eq),,,
15-01-2021,17:00,16.425,R,ugm-3 (Ref.eq),,,
15-01-2021,18:00,13.527,R,ugm-3 (Ref.eq),,,
15-01-2021,19:00,9.662,R,ugm-3 (Ref.eq),,,
15-01-2021,20:00,8.696,R,ugm-3 (Ref.eq),,,
15-01-2021,21:00,7.730,R,ugm-3 (Ref.eq),,,
15-01-2021,22:00,9.662,R,ugm-3 (Ref.eq),,,
15-01-2021,23:00,6.763,R,ugm-3 (Ref.eq),,,
15-01-2021,24:00,11.594,R,ugm-3 (Ref.eq),,,
16-01-2021,01:00,11.594,R,ugm-3 (Ref.eq),,,
16-01-2021,02:00,17.392,R,ugm-3 (Ref.eq),,,
16-01-2021,03:00,11.594,R,ugm-3 (Ref.eq),,,
16-01-2021,04:00,7.730,R,ugm-3 (Ref.eq),,,
16-01-2021,05:00,6.763,R,ugm-3 (Ref.eq),,,
16-01-2021,06:00,4.831,R,ugm-3 (Ref.eq),,,
16-01-2021,07:00,3.865,R,ugm-3 (Ref.eq),,,
16-01-2021,08:00,3.865,R,ugm-3 (Ref.eq),,,
16-01-2021,09:00,5.797,R,ugm-3 (Ref.eq),,,
16-01-2021,10:00,10.628,R,ugm-3 (Ref.eq),,,
16-01-2021,11:00,9.662,R,ugm-3 (Ref.eq),,,
16-01-2021,12:00,6.763,R,ugm-3 (Ref.eq),,,
16-01-2021,13:00,12.561,R,ugm-3 (Ref.eq),,,
16-01-2021,14:00,12.561,R,ugm-3 (Ref.eq),,,
16-01-2021,15:00,23.189,R,ugm-3 (Ref.eq),,,
16-01-2021,16:00,24.155,R,ugm-3 (Ref.eq),,,
16-01-2021,17:00,28.986,R,ugm-3 (Ref.eq),,,
16-01-2021,18:00,25.121,R,ugm-3 (Ref.eq),7.000,R,ugm-3 (BAM)
16-01-2021,19:00,26.087,R,ugm-3 (Ref.eq),11.000,R,ugm-3 (BAM)
16-01-2021,20:00,18.358,R,ugm-3 (Ref.eq),11.000,R,ugm-3 (BAM)
16-01-2021,21:00,22.223,R,ugm-3 (Ref.eq),7.000,R,ugm-3 (BAM)
16-01-2021,22:00,26.087,R,ugm-3 (Ref.eq),8.000,R,ugm-3 (BAM)
16-01-2021,23:00,23.189,R,ugm-3 (Ref.eq),11.000,R,ugm-3 (BAM)
16-01-2021,24:00,24.155,R,ugm-3 (Ref.eq),10.000,R,ugm-3 (BAM)
17-01-2021,01:00,19.324,R,ugm-3 (Ref.eq),6.000,R,ugm-3 (BAM)
17-01-2021,02:00,21.256,R,ugm-3 (Ref.eq),6.000,R,ugm-3 (BAM)
17-01-2021,03:00,14.493,R,ugm-3 (Ref.eq),6.000,R,ugm-3 (BAM)
17-01-2021,04:00,18.358,R,ugm-3 (Ref.eq),6.000,R,ugm-3 (BAM)
17-01-2021,05:00,17.392,R,ugm-3 (Ref.eq),5.000,R,ugm-3 (BAM)
17-01-2021,06:00,17.392,R,ugm-3 (Ref.eq),4.000,R,ugm-3 (BAM)
17-01-2021,07:00,14.493,R,ugm-3 (Ref.eq),4.000,R,ugm-3 (BAM)
17-01-2021,08:00,15.459,R,ugm-3 (Ref.eq),0.000,R,ugm-3 (BAM)
17-01-2021,09:00,14.493,R,ugm-3 (Ref.eq),3.000,R,ugm-3 (BAM)
17-01-2021,10:00,18.358,R,ugm-3 (Ref.eq),6.000,R,ugm-3 (BAM)
17-01-2021,11:00,12.561,R,ugm-3 (Ref.eq),3.000,R,ugm-3 (BAM)
17-01-2021,12:00,9.662,R,ugm-3 (Ref.eq),2.000,R,ugm-3 (BAM)
17-01-2021,13:00,13.527,R,ugm-3 (Ref.eq),5.000,R,ugm-3 (BAM)
17-01-2021,14:00,19.324,R,ugm-3 (Ref.eq),3.000,R,ugm-3 (BAM)
17-01-2021,15:00,15.459,R,ugm-3 (Ref.eq),0.000,R,ugm-3 (BAM)
17-01-2021,16:00,25.121,R,ugm-3 (Ref.eq),6.000,R,ugm-3 (BAM)
17-01-2021,17:00,17.392,R,ugm-3 (Ref.eq),9.000,R,ugm-3 (BAM)
17-01-2021,18:00,26.087,R,ugm-3 (Ref.eq),7.000,R,ugm-3 (BAM)
17-01-2021,19:00,22.223,R,ugm-3 (Ref.eq),14.000,R,ugm-3 (BAM)
17-01-2021,20:00,18.358,R,ugm-3 (Ref.eq),10.000,R,ugm-3 (BAM)
17-01-2021,21:00,17.392,R,ugm-3 (Ref.eq),10.000,R,ugm-3 (BAM)
17-01-2021,22:00,23.189,R,ugm-3 (Ref.eq),13.000,R,ugm-3 (BAM)
17-01-2021,23:00,20.290,R,ugm-3 (Ref.eq),8.000,R,ugm-3 (BAM)
17-01-2021,24:00,14.493,R,ugm-3 (Ref.eq),9.000,R,ugm-3 (BAM)
18-01-2021,01:00,15.459,R,ugm-3 (Ref.eq),6.000,R,ugm-3 (BAM)
18-01-2021,02:00,10.628,R,ugm-3 (Ref.eq),4.000,R,ugm-3 (BAM)
18-01-2021,03:00,10.628,R,ugm-3 (Ref.eq),3.000,R,ugm-3 (BAM)
18-01-2021,04:00,9.662,R,ugm-3 (Ref.eq),3.000,R,ugm-3 (BAM)
18-01-2021,05:00,5.797,R,ugm-3 (Ref.eq),4.000,R,ugm-3 (BAM)